Weather History for Hailey, ID

Change the Weather History Date:

Thursday, September 5, 2013

  Actual Average Record
Temperature  
Mean Temperature 67 °F -  
Max Temperature 75 °F 74 °F 87 °F (2006)
Min Temperature 59 °F 45 °F 37 °F (1996)
Cooling Degree Days 2    
Growing Degree Days 17 (Base 50)    
Moisture  
Dew Point 55 °F    
Average Humidity 73    
Maximum Humidity 94    
Minimum Humidity 53    
Precipitation  
Precipitation 0.00 in - - ()
Sea Level Pressure  
Sea Level Pressure 30.18 in    
Wind  
Wind Speed 10 mph (NW)    
Max Wind Speed 15 mph    
Max Gust Speed 21 mph    
Visibility 10 miles    
Events Rain , Thunderstorm    
Averages and records for this station are not official NWS values.
T = Trace of Precipitation, MM = Missing Value Source: NWS Daily Summary

Daily Weather History Graph

Daily Weather History Graph

Search for Another Location

Airport:

Trip Planner

Search our weather history database for the weather conditions in past years. The results will help you decide how hot, cold, wet, or windy it might be!

Date:

Astronomy

Sep. 05, 2013 Rise Set
Actual Time 7:05 AM MDT 8:04 PM MDT
Civil Twilight 6:36 AM MDT 8:33 PM MDT
Nautical Twilight 6:01 AM MDT 9:08 PM MDT
Astronomical Twilight 5:25 AM MDT 9:45 PM MDT
Moon 7:23 AM MDT (9/5) 7:55 PM MDT (9/5)
Length of Visible Light 13h 57m
Length of Day
12h 58m
New Moon, 0% of the Moon is Illuminated
Sep 5
New Moon
Sep 12
First Quarter
Sep 19
Full
Sep 26
Last Quarter
Oct 4
New

Hourly Weather History & Observations

Time (MDT) Temp. Dew Point Humidity Pressure Visibility Wind Dir Wind Speed Gust Speed Precip Events Conditions
12:15 AM 66.2 °F 51.8 °F 60% 30.23 in 10.0 mi NW 12.7 mph - N/A   Clear
12:35 AM 64.4 °F 53.6 °F 68% 30.23 in 10.0 mi NW 12.7 mph - N/A   Clear
12:55 AM 64.4 °F 53.6 °F 68% 30.22 in 10.0 mi NNW 11.5 mph - N/A   Clear
1:15 AM 64.4 °F 53.6 °F 68% 30.22 in 10.0 mi NW 11.5 mph - N/A   Clear
1:35 AM 64.4 °F 53.6 °F 68% 30.21 in 10.0 mi NW 10.4 mph - N/A   Clear
1:55 AM 62.6 °F 53.6 °F 72% 30.21 in 10.0 mi NW 10.4 mph - N/A   Clear
2:15 AM 62.6 °F 53.6 °F 72% 30.21 in 10.0 mi NW 8.1 mph - N/A   Clear
2:35 AM 62.6 °F 53.6 °F 72% 30.20 in 10.0 mi NNW 11.5 mph - N/A   Clear
2:55 AM 62.6 °F 53.6 °F 72% 30.20 in 10.0 mi NW 9.2 mph - N/A   Clear
3:15 AM 62.6 °F 53.6 °F 72% 30.19 in 10.0 mi NW 9.2 mph - N/A   Clear
3:35 AM 60.8 °F 53.6 °F 77% 30.20 in 10.0 mi NW 6.9 mph - N/A   Clear
3:55 AM 60.8 °F 53.6 °F 77% 30.19 in 10.0 mi NW 10.4 mph - N/A   Clear
4:15 AM 60.8 °F 53.6 °F 77% 30.20 in 10.0 mi NW 10.4 mph - N/A   Mostly Cloudy
4:35 AM 60.8 °F 53.6 °F 77% 30.19 in 10.0 mi NW 13.8 mph - N/A   Scattered Clouds
4:55 AM 59.0 °F 53.6 °F 82% 30.19 in 10.0 mi NNW 10.4 mph - N/A   Clear
5:15 AM 60.8 °F 51.8 °F 72% 30.19 in 10.0 mi NW 11.5 mph - N/A   Scattered Clouds
5:35 AM 59.0 °F 51.8 °F 77% 30.19 in 10.0 mi NW 9.2 mph - N/A   Scattered Clouds
5:55 AM 59.0 °F 51.8 °F 77% 30.20 in 10.0 mi NW 9.2 mph - N/A   Mostly Cloudy
6:15 AM 59.0 °F 51.8 °F 77% 30.20 in 10.0 mi NW 9.2 mph - N/A   Overcast
6:35 AM 59.0 °F 51.8 °F 77% 30.21 in 10.0 mi NW 9.2 mph - N/A   Mostly Cloudy
6:47 AM 60.8 °F 53.6 °F 77% 30.21 in 10.0 mi WNW 6.9 mph - N/A   Mostly Cloudy
6:55 AM 59.0 °F 51.8 °F 77% 30.21 in 10.0 mi NW 8.1 mph - N/A   Mostly Cloudy
7:47 AM 60.8 °F 53.6 °F 77% 30.24 in 10.0 mi NW 6.9 mph - N/A   Overcast
8:47 AM 60.8 °F 53.6 °F 77% 30.24 in 10.0 mi WNW 8.1 mph - N/A   Overcast
9:47 AM 60.8 °F 55.4 °F 82% 30.23 in 10.0 mi WNW 11.5 mph - N/A   Overcast
10:47 AM 64.4 °F 55.4 °F 73% 30.23 in 10.0 mi NW 9.2 mph - N/A   Overcast
11:47 AM 69.8 °F 57.2 °F 64% 30.22 in 10.0 mi NW 9.2 mph - N/A   Mostly Cloudy
12:47 PM 71.6 °F 55.4 °F 57% 30.20 in 10.0 mi Calm Calm - N/A   Mostly Cloudy
1:47 PM 73.4 °F 55.4 °F 53% 30.19 in 10.0 mi Calm Calm - N/A   Overcast
2:47 PM 75.2 °F 57.2 °F 53% 30.17 in 10.0 mi SSE 8.1 mph - N/A   Overcast
3:10 PM 73.4 °F 57.2 °F 57% 30.16 in 6.0 mi SSE 10.4 mph 17.3 mph N/A Rain , Thunderstorm Light Thunderstorms and Rain
3:50 PM 71.6 °F 60.8 °F 69% 30.17 in 7.0 mi SSE 9.2 mph 17.3 mph N/A Rain , Thunderstorm Light Thunderstorms and Rain
4:47 PM 71.6 °F 57.2 °F 60% 30.14 in 10.0 mi SSE 5.8 mph - N/A   Scattered Clouds
5:52 PM 73.4 °F 55.4 °F 53% 30.11 in 10.0 mi NW 8.1 mph - N/A   Mostly Cloudy
6:10 PM 73.4 °F 57.2 °F 57% 30.10 in 10.0 mi West 5.8 mph - N/A Rain , Thunderstorm Light Thunderstorms and Rain
6:47 PM 68.0 °F 60.8 °F 78% 30.14 in 10.0 mi Calm Calm - N/A Rain , Thunderstorm Light Thunderstorms and Rain
7:47 PM 64.4 °F 60.8 °F 88% 30.13 in 10.0 mi NW 8.1 mph - N/A   Mostly Cloudy
8:50 PM 64.4 °F 57.2 °F 77% 30.14 in 10.0 mi NW 9.2 mph - N/A   Scattered Clouds
9:47 PM 62.6 °F 57.2 °F 82% 30.13 in 10.0 mi WNW 11.5 mph - N/A   Partly Cloudy
10:11 PM 62.6 °F 57.2 °F 82% 30.12 in 10.0 mi NW 11.5 mph 18.4 mph N/A Thunderstorm Thunderstorm
10:50 PM 62.6 °F 59.0 °F 88% 30.13 in 10.0 mi West 11.5 mph - N/A Rain , Thunderstorm Light Thunderstorms and Rain
11:15 PM 60.8 °F 59.0 °F 94% 30.12 in 10.0 mi NW 11.5 mph - N/A   Mostly Cloudy
11:35 PM 60.8 °F 57.2 °F 88% 30.12 in 10.0 mi NW 13.8 mph - N/A Thunderstorm Scattered Clouds
11:55 PM 60.8 °F 57.2 °F 88% 30.12 in 10.0 mi NNE 15.0 mph 20.7 mph N/A Thunderstorm Mostly Cloudy